This is the latest recevied weather packets stored in our database for station/object KF4ZNO-13. If no packets are shown the sender has not sent any weather packets the latest 10 day(s).
| Time | Temp. | Humidity | Pressure | Rain* | Wind** | Luminosity | Snow |
|---|---|---|---|---|---|---|---|
| 1777571441 | 22.78° C | 80% | 1014.2 hPa | 0 mm | - | - | - |
| 1777570820 | 22.78° C | 80% | 1014.2 hPa | 0 mm | - | - | - |
| 1777569020 | 23.33° C | 82% | 1014.5 hPa | 0 mm | - | - | - |
| 1777568420 | 22.78° C | 81% | 1014.5 hPa | 0 mm | - | - | - |
| 1777565420 | 22.78° C | 84% | 1014.5 hPa | 0 mm | - | - | - |
| 1777564220 | 22.22° C | 83% | 1014.5 hPa | 0 mm | - | - | - |
| 1777561840 | 21.67° C | 85% | 1014.5 hPa | 0 mm | - | - | - |
| 1777561220 | 21.11° C | 87% | 1014.9 hPa | 0 mm | - | - | - |
| 1777558220 | 20.56° C | 89% | 1014.8 hPa | 0 mm | - | - | - |
| 1777557640 | 20° C | 91% | 1014.7 hPa | 0 mm | - | - | - |
| 1777555840 | 18.89° C | 93% | 1014.6 hPa | 0 mm | - | - | - |
| 1777551620 | 18.33° C | 93% | 1014.3 hPa | 0 mm | - | - | - |
| 1777549819 | 18.33° C | 93% | 1013.2 hPa | 0 mm | - | - | - |
| 1777549220 | 18.33° C | 93% | 1012.6 hPa | 0 mm | - | - | - |
| 1777545060 | 18.89° C | 93% | 1013.7 hPa | 0 mm | - | - | - |
| 1777543839 | 18.89° C | 93% | 1013.5 hPa | 0 mm | - | - | - |
| 1777540819 | 18.89° C | 93% | 1013 hPa | 0 mm | - | - | - |
| 1777535419 | 18.89° C | 93% | 1011.4 hPa | 0 mm | - | - | - |
| 1777534819 | 18.89° C | 93% | 1011.5 hPa | 0 mm | - | - | - |
| 1777533019 | 18.89° C | 93% | 1011.7 hPa | 0 mm | - | - | - |
| 1777531219 | 18.89° C | 93% | 1012.3 hPa | 0 mm | - | - | - |
| 1777518019 | 18.89° C | 92% | 1016.3 hPa | 0.25 mm | - | - | - |
| 1777517418 | 18.89° C | 92% | 1016.3 hPa | 0.25 mm | - | - | - |
| 1777515618 | 18.89° C | 91% | 1017.3 hPa | 0.25 mm | - | - | - |
| 1777511419 | 20.56° C | 90% | 1015.9 hPa | 1.02 mm | - | - | - |
* Rain latest hour (hover to see other rain measurements)
** Current wind speed in m/s (hover to see current wind gust speed)